TimeEDT,TemperatureF,Dew PointF,Humidity,Sea Level PressureIn,VisibilityMPH,Wind Direction,Wind SpeedMPH,Gust SpeedMPH,PrecipitationIn,Events,Conditions,WindDirDegrees,DateUTC
12:15 AM,68.5,67.1,95,29.85,10.0,WSW,8.1,-,N/A,Rain,Light Rain,240,2013-07-01 04:15:00
12:35 AM,68.2,67.1,96,29.84,10.0,WNW,3.5,-,N/A,Rain,Rain,300,2013-07-01 04:35:00
12:55 AM,68.2,66.6,95,29.84,10.0,Calm,Calm,-,N/A,,Light Drizzle,0,2013-07-01 04:55:00
1:15 AM,68.4,67.1,96,29.85,10.0,Calm,Calm,-,N/A,Rain,Rain,0,2013-07-01 05:15:00
1:35 AM,67.8,66.9,97,29.84,2.5,Calm,Calm,-,N/A,,Light Drizzle,0,2013-07-01 05:35:00
1:55 AM,67.1,66.7,99,29.84,4.0,ENE,3.5,-,N/A,Rain,Light Rain,60,2013-07-01 05:55:00
2:15 AM,67.1,66.9,99,29.83,3.0,NNE,3.5,-,N/A,,Light Drizzle,30,2013-07-01 06:15:00
2:35 AM,67.3,67.1,99,29.83,7.0,East,6.9,-,N/A,,Overcast,80,2013-07-01 06:35:00
2:55 AM,67.1,66.9,99,29.83,10.0,East,5.8,-,N/A,,Overcast,100,2013-07-01 06:55:00
3:15 AM,67.3,66.6,98,29.84,10.0,SE,4.6,-,N/A,Rain,Light Rain,140,2013-07-01 07:15:00
3:35 AM,66.7,65.8,97,29.83,7.0,East,4.6,-,N/A,Rain,Rain,80,2013-07-01 07:35:00
3:55 AM,66.0,64.2,94,29.84,10.0,ENE,3.5,-,N/A,Rain,Rain,60,2013-07-01 07:55:00
4:15 AM,65.3,63.9,95,29.84,10.0,ESE,3.5,-,N/A,,Overcast,120,2013-07-01 08:15:00
4:35 AM,65.3,64.4,97,29.83,10.0,Calm,Calm,-,N/A,Rain,Light Rain,0,2013-07-01 08:35:00
4:55 AM,65.3,64.4,97,29.83,10.0,Calm,Calm,-,N/A,,Light Drizzle,0,2013-07-01 08:55:00
5:15 AM,64.8,64.0,98,29.83,10.0,East,3.5,-,N/A,,Mostly Cloudy,80,2013-07-01 09:15:00
5:35 AM,64.6,63.9,98,29.84,10.0,ESE,3.5,-,N/A,,Overcast,120,2013-07-01 09:35:00
5:55 AM,64.9,63.9,96,29.84,10.0,Calm,Calm,-,N/A,,Scattered Clouds,0,2013-07-01 09:55:00
6:15 AM,65.3,63.9,95,29.84,10.0,Calm,Calm,-,N/A,,Clear,0,2013-07-01 10:15:00
6:35 AM,63.7,63.0,97,29.85,0.5,Calm,Calm,-,N/A,Fog,Fog,0,2013-07-01 10:35:00
6:55 AM,63.9,63.5,99,29.84,10.0,Calm,Calm,-,N/A,,Scattered Clouds,0,2013-07-01 10:55:00
7:15 AM,63.1,62.8,99,29.84,1.0,East,3.5,-,N/A,,Overcast,80,2013-07-01 11:15:00
7:35 AM,64.6,64.4,99,29.86,10.0,Calm,Calm,-,N/A,,Mostly Cloudy,0,2013-07-01 11:35:00
7:55 AM,65.5,64.9,98,29.86,3.0,Calm,Calm,-,N/A,,Mostly Cloudy,0,2013-07-01 11:55:00
8:15 AM,67.1,66.0,96,29.87,10.0,Calm,Calm,-,N/A,,Overcast,0,2013-07-01 12:15:00
8:35 AM,67.1,66.2,97,29.87,10.0,Calm,Calm,-,N/A,,Overcast,0,2013-07-01 12:35:00
8:55 AM,67.3,66.0,96,29.88,10.0,Calm,Calm,-,N/A,,Overcast,0,2013-07-01 12:55:00
9:15 AM,68.5,66.0,92,29.88,10.0,Calm,Calm,-,N/A,,Overcast,0,2013-07-01 13:15:00
9:35 AM,68.2,66.6,95,29.89,10.0,Calm,Calm,-,N/A,,Overcast,0,2013-07-01 13:35:00
9:55 AM,69.6,65.7,87,29.89,10.0,Calm,Calm,-,N/A,,Overcast,0,2013-07-01 13:55:00
10:15 AM,70.5,67.1,89,29.89,10.0,Calm,Calm,-,N/A,,Overcast,0,2013-07-01 14:15:00
10:35 AM,70.3,66.7,88,29.89,10.0,Calm,Calm,-,N/A,,Overcast,0,2013-07-01 14:35:00
10:55 AM,71.8,67.3,86,29.90,10.0,Calm,Calm,-,N/A,,Overcast,0,2013-07-01 14:55:00
11:15 AM,73.6,66.4,78,29.90,10.0,Calm,Calm,-,N/A,,Mostly Cloudy,0,2013-07-01 15:15:00
11:35 AM,76.6,67.8,74,29.90,10.0,NNE,3.5,-,N/A,,Mostly Cloudy,30,2013-07-01 15:35:00
11:55 AM,76.8,68.5,75,29.90,10.0,NE,4.6,-,N/A,,Mostly Cloudy,40,2013-07-01 15:55:00
12:15 PM,77.0,68.0,74,29.90,10.0,WNW,3.5,-,N/A,,Mostly Cloudy,290,2013-07-01 16:15:00
12:35 PM,77.5,68.5,74,29.90,10.0,Calm,Calm,-,N/A,,Scattered Clouds,0,2013-07-01 16:35:00
12:55 PM,77.9,67.3,70,29.90,10.0,Calm,Calm,-,N/A,,Scattered Clouds,0,2013-07-01 16:55:00
1:15 PM,78.8,66.9,67,29.89,10.0,NNE,3.5,-,N/A,,Mostly Cloudy,30,2013-07-01 17:15:00
1:35 PM,77.9,67.6,71,29.89,10.0,Calm,Calm,-,N/A,,Mostly Cloudy,0,2013-07-01 17:35:00
1:55 PM,79.5,65.7,62,29.88,10.0,Calm,Calm,-,N/A,,Scattered Clouds,0,2013-07-01 17:55:00
2:15 PM,82.0,68.0,62,29.87,10.0,East,5.8,-,N/A,,Scattered Clouds,80,2013-07-01 18:15:00
2:35 PM,81.0,66.9,62,29.86,10.0,Calm,Calm,-,N/A,,Mostly Cloudy,0,2013-07-01 18:35:00
2:55 PM,82.9,67.1,59,29.86,10.0,ENE,3.5,-,N/A,,Clear,70,2013-07-01 18:55:00
3:15 PM,81.3,67.8,63,29.86,10.0,NE,3.5,-,N/A,,Scattered Clouds,40,2013-07-01 19:15:00
3:35 PM,80.2,68.2,67,29.87,10.0,Calm,Calm,-,N/A,,Scattered Clouds,0,2013-07-01 19:35:00
3:55 PM,80.1,69.6,70,29.86,10.0,NNE,3.5,-,N/A,,Clear,20,2013-07-01 19:55:00
4:15 PM,80.6,69.1,68,29.86,10.0,NNE,6.9,-,N/A,,Scattered Clouds,20,2013-07-01 20:15:00
4:35 PM,79.7,68.2,68,29.87,10.0,East,3.5,-,N/A,,Scattered Clouds,80,2013-07-01 20:35:00
4:55 PM,79.0,70.3,75,29.86,10.0,ENE,4.6,-,N/A,,Scattered Clouds,60,2013-07-01 20:55:00
5:15 PM,81.9,68.5,64,29.85,10.0,East,5.8,-,N/A,,Scattered Clouds,90,2013-07-01 21:15:00
5:35 PM,80.8,69.1,67,29.85,10.0,Calm,Calm,-,N/A,,Clear,0,2013-07-01 21:35:00
5:55 PM,79.7,68.2,68,29.86,10.0,Calm,Calm,-,N/A,,Mostly Cloudy,0,2013-07-01 21:55:00
6:15 PM,77.7,70.9,79,29.85,10.0,Calm,Calm,-,N/A,,Scattered Clouds,0,2013-07-01 22:15:00
6:35 PM,77.9,68.5,73,29.87,10.0,Calm,Calm,-,N/A,,Mostly Cloudy,0,2013-07-01 22:35:00
6:55 PM,76.8,69.8,79,29.88,10.0,WNW,3.5,-,N/A,Rain,Light Rain,300,2013-07-01 22:55:00
7:15 PM,72.3,67.6,85,29.91,10.0,West,15.0,23.0,N/A,Rain,Light Rain,280,2013-07-01 23:15:00
7:35 PM,67.3,65.5,94,29.93,5.0,WNW,6.9,-,N/A,Rain,Rain,300,2013-07-01 23:35:00
7:55 PM,66.6,65.3,96,29.93,10.0,Calm,Calm,-,N/A,Rain,Light Rain,0,2013-07-01 23:55:00
8:15 PM,66.4,65.1,96,29.94,10.0,NNE,3.5,-,N/A,Rain,Light Rain,30,2013-07-02 00:15:00
8:35 PM,65.5,64.4,96,29.93,10.0,NE,3.5,-,N/A,,Overcast,50,2013-07-02 00:35:00
8:55 PM,65.8,64.6,96,29.95,10.0,SE,3.5,-,N/A,,Overcast,140,2013-07-02 00:55:00
9:15 PM,65.7,64.6,96,29.95,10.0,ESE,5.8,-,N/A,,Overcast,120,2013-07-02 01:15:00
9:35 PM,65.8,64.8,96,29.95,10.0,SSE,4.6,-,N/A,,Scattered Clouds,150,2013-07-02 01:35:00
9:55 PM,65.5,64.6,97,29.95,10.0,SE,3.5,-,N/A,,Clear,130,2013-07-02 01:55:00
10:15 PM,65.7,64.9,98,29.94,10.0,SE,3.5,-,N/A,,Clear,130,2013-07-02 02:15:00
10:35 PM,65.8,64.8,96,29.94,10.0,Calm,Calm,-,N/A,,Clear,0,2013-07-02 02:35:00
10:55 PM,66.2,64.4,94,29.94,10.0,Calm,Calm,-,N/A,,Clear,0,2013-07-02 02:55:00
11:15 PM,66.4,64.4,93,29.95,10.0,South,3.5,-,N/A,,Clear,190,2013-07-02 03:15:00
11:35 PM,66.4,65.3,96,29.95,10.0,South,4.6,-,N/A,,Clear,180,2013-07-02 03:35:00
11:55 PM,66.0,64.9,96,29.95,10.0,Calm,Calm,-,N/A,,Scattered Clouds,0,2013-07-02 03:55:00